Temp
50 50 50 51 51 50 50 50 50 50 50 50 50 50 50 49 49 49 49 50 49 50 50 50 49 50 50 51 52 52 52 51 51 52 52 52 52 52 52 52 51 50 50 51 51 51 51 51 50 49 48 48
50 49 49 50 49 49 49 49 49 49 49 49 49 49 48 48 48 48 49 49 49 49 49 49 48 49 49 50 51 51 51 50 50 50 51 51 50 50 50 49 49 48 48 49 50 50 49 49 48 47 47 46
54 50 48 48 48 48 48 48 48 48 48 48 48 47 47 47 47 48 49 49 49 49 49 48 48 48 49 49 50 50 50 49 49 49 49 49 49 48 48 47 47 46 47 48 48 48 48 47 46 46 45 43
55 52 48 48 47 47 47 47 47 47 47 47 47 47 47 47 47 49 50 49 50 49 48 48 47 47 48 48 49 49 49 48 48 48 48 48 48 47 47 46 45 45 45 46 46 46 46 45 44 43 42 42
53 52 48 50 50 48 47 47 46 47 47 48 48 47 47 47 49 50 50 50 50 48 48 47 46 47 46 47 48 48 47 47 47 47 48 47 47 46 45 44 44 43 43 44 44 44 43 42 41 41 41 40
53 53 52 52 52 52 50 49 47 48 49 47 49 47 47 48 49 50 49 49 48 48 47 46 46 45 45 46 47 47 46 46 46 46 46 46 46 45 44 44 44 44 42 42 42 42 41 40 38 38 39 40
54 54 54 53 53 52 50 51 50 50 50 49 48 48 47 48 49 48 47 48 47 46 46 47 47 46 46 47 46 46 45 46 46 45 46 45 45 45 44 44 44 44 42 42 42 41 40 40 39 38 37 38
55 54 54 53 53 52 52 52 51 50 50 49 48 47 47 48 47 46 47 46 46 46 48 48 47 47 46 46 47 46 46 46 47 47 47 46 45 46 46 45 44 44 43 43 42 41 40 39 39 38 37 36
54 54 53 53 53 52 52 51 51 50 50 49 48 47 47 46 46 46 47 47 47 46 47 47 47 48 48 48 47 46 46 47 47 47 46 47 46 46 45 44 44 43 42 43 39 38 39 37 38 38 37 36
54 51 51 52 53 52 52 51 51 50 50 49 48 47 46 46 46 46 46 46 45 45 46 46 47 47 48 47 47 47 47 47 47 46 46 46 46 45 45 44 44 43 42 41 40 39 37 36 36 36 37 36
53 52 53 52 52 50 50 51 49 49 49 49 48 46 46 45 44 44 45 45 44 44 45 45 46 46 47 46 46 47 46 46 46 46 46 46 45 45 45 44 44 43 43 42 40 38 37 35 35 36 35 37
53 53 52 51 51 49 50 48 48 49 49 47 47 47 47 46 44 43 43 43 44 43 44 44 45 45 45 46 46 47 46 45 45 45 45 45 45 45 45 44 43 43 43 43 42 39 38 35 36 36 37 35
52 53 52 51 50 50 49 48 49 49 48 47 47 47 46 46 43 43 43 42 43 44 43 43 43 44 44 45 45 45 45 45 44 44 44 44 44 44 44 44 43 43 43 43 43 41 39 38 36 36 35 35
52 52 51 50 50 50 49 48 49 48 47 47 47 46 46 45 43 42 42 42 42 42 41 42 43 43 44 44 45 44 43 44 44 43 43 43 43 43 43 42 43 43 42 42 42 42 40 39 37 37 38 36
53 53 51 51 50 50 48 48 48 47 47 47 47 46 45 44 43 42 42 42 41 41 41 41 42 42 43 43 43 44 43 44 43 43 42 42 42 41 41 41 42 42 42 41 42 42 41 40 40 38 38 37
52 52 52 51 50 49 49 48 47 47 47 46 46 46 44 43 42 42 41 41 41 40 40 40 41 41 41 41 43 43 43 42 42 41 41 41 42 42 41 41 42 42 41 41 41 42 41 41 40 39 39 37
53 52 52 51 49 50 48 48 47 46 46 46 46 45 43 43 42 42 41 41 40 40 39 39 39 40 41 41 42 42 42 41 40 40 40 41 42 41 41 41 41 41 41 40 41 41 41 41 40 40 39 38
53 52 51 51 50 49 48 47 46 46 46 46 45 45 43 42 41 41 41 40 40 40 39 39 39 39 40 41 41 41 41 39 40 40 40 39 40 39 40 39 40 40 39 40 40 40 40 40 40 40 39 38
53 53 51 50 49 49 47 47 46 46 46 45 45 44 43 42 41 41 40 39 38 38 39 38 38 39 40 41 41 40 40 39 39 39 38 39 38 39 38 39 39 39 38 38 38 39 40 39 40 40 39 38
53 53 52 50 48 49 47 46 46 45 45 45 45 44 43 42 41 40 40 39 39 38 38 38 38 39 40 40 40 39 38 38 37 38 37 38 38 36 36 37 37 38 37 38 38 39 39 38 38 39 39 38
52 52 52 51 49 48 47 45 45 45 45 45 43 43 42 42 41 40 39 38 38 37 37 37 37 38 38 39 38 37 37 37 37 37 36 37 38 37 35 35 35 36 37 37 37 38 37 37 37 38 38 38
52 51 51 50 49 47 46 45 45 45 44 43 43 43 42 41 40 39 39 38 38 37 37 37 37 37 37 37 36 36 35 35 37 36 36 34 36 36 35 34 34 34 35 36 35 36 36 36 37 38 38 39
52 51 50 49 48 47 46 44 44 44 43 43 43 42 42 41 40 39 38 38 37 36 36 36 36 36 36 36 35 34 34 34 35 35 35 34 34 35 35 34 34 34 34 34 35 34 35 37 37 38 39 39
50 48 47 45 46 44 44 44 43 43 42 43 42 42 41 40 39 39 38 38 37 36 35 35 35 35 36 35 34 33 32 33 33 33 33 33 33 32 33 35 34 35 35 34 34 33 35 37 38 38 39 39
48 45 44 44 44 43 44 43 44 43 42 42 42 42 41 39 38 38 37 37 36 35 35 35 35 35 34 35 34 33 32 33 33 33 33 32 33 31 30 31 34 35 35 32 30 34 35 36 39 39 39 39
49 47 46 45 44 44 45 44 42 42 43 42 41 41 40 39 38 37 37 37 36 35 34 34 34 33 33 34 33 33 33 33 33 33 32 32 30 32 31 30 34 34 33 29 29 28 29 32 38 41 40 39
48 49 48 47 47 47 45 48 47 45 44 43 41 40 39 38 38 37 36 36 36 34 34 34 33 33 34 33 33 32 32 32 31 32 31 31 30 29 32 32 34 33 33 28 30 30 28 29 29 35 36 39
50 50 50 49 47 48 47 45 46 45 44 42 41 38 39 38 37 37 36 36 35 34 34 33 33 33 33 33 34 32 31 31 32 32 31 31 31 30 27 30 32 36 34 31 28 23 27 26 28 26 32 31
50 48 47 46 45 44 43 43 42 41 39 39 39 38 37 37 37 36 35 36 35 34 33 33 32 32 33 32 33 33 31 31 32 32 32 32 31 30 29 28 31 33 34 32 32 28 24 24 23 25 28 28
49 46 44 43 41 38 38 37 37 36 37 37 37 36 38 38 38 36 35 35 35 34 34 32 32 32 32 32 32 32 32 32 32 32 31 32 31 30 31 29 29 29 33 34 32 31 30 29 22 23 26 26
48 45 44 43 42 41 40 39 40 42 41 40 40 40 38 38 38 36 35 35 35 34 33 33 32 32 31 32 32 32 32 31 31 32 32 32 31 31 31 30 27 28 30 33 33 32 31 30 30 30 24 21
MSLP
1026.82 1026.78 1026.70 1026.62 1026.58 1026.58 1026.54 1026.46 1026.38 1026.30 1026.26 1026.18 1026.14 1026.14 1026.10 1026.02 1025.94 1025.82 1025.66 1025.46 1025.26 1025.06 1024.94 1024.86 1024.82 1024.66 1024.46 1024.18 1023.86 1023.62 1023.38 1023.22 1023.06 1022.82 1022.58 1022.42 1022.30 1022.18 1022.06 1022.02 1022.06 1022.14 1022.06 1021.94 1021.74 1021.54 1021.42 1021.22 1021.10 1020.94 1020.78 1020.50
1026.58 1026.74 1026.74 1026.70 1026.62 1026.62 1026.58 1026.54 1026.46 1026.38 1026.34 1026.30 1026.26 1026.26 1026.22 1026.10 1025.98 1025.82 1025.58 1025.42 1025.22 1025.06 1024.94 1024.86 1024.86 1024.74 1024.62 1024.34 1023.98 1023.74 1023.50 1023.38 1023.18 1022.98 1022.78 1022.66 1022.50 1022.42 1022.34 1022.34 1022.34 1022.42 1022.30 1022.10 1021.90 1021.74 1021.58 1021.46 1021.38 1021.14 1020.98 1020.78
1026.26 1026.50 1026.70 1026.70 1026.66 1026.62 1026.62 1026.58 1026.54 1026.46 1026.42 1026.38 1026.38 1026.34 1026.30 1026.18 1025.98 1025.74 1025.46 1025.30 1025.18 1025.02 1024.86 1024.78 1024.78 1024.78 1024.66 1024.38 1024.02 1023.78 1023.54 1023.42 1023.30 1023.06 1022.90 1022.82 1022.70 1022.66 1022.62 1022.58 1022.58 1022.54 1022.42 1022.22 1022.06 1021.86 1021.74 1021.74 1021.58 1021.34 1021.14 1021.06
1026.10 1026.26 1026.58 1026.58 1026.58 1026.54 1026.54 1026.58 1026.58 1026.54 1026.46 1026.42 1026.34 1026.26 1026.22 1026.10 1025.90 1025.46 1025.22 1025.14 1025.02 1024.86 1024.86 1024.70 1024.70 1024.74 1024.62 1024.38 1024.02 1023.74 1023.58 1023.38 1023.34 1023.14 1023.02 1022.94 1022.86 1022.78 1022.74 1022.70 1022.66 1022.58 1022.46 1022.30 1022.18 1022.06 1021.98 1021.94 1021.86 1021.62 1021.50 1021.30
1026.06 1026.18 1026.42 1026.22 1026.22 1026.34 1026.34 1026.38 1026.46 1026.46 1026.30 1026.22 1026.14 1026.06 1026.06 1025.94 1025.62 1025.34 1025.14 1025.10 1024.98 1024.86 1024.74 1024.70 1024.66 1024.66 1024.62 1024.38 1023.98 1023.74 1023.54 1023.42 1023.30 1023.14 1023.02 1022.98 1022.90 1022.82 1022.74 1022.70 1022.62 1022.54 1022.50 1022.42 1022.30 1022.22 1022.18 1022.14 1022.10 1021.94 1021.78 1021.50
1025.90 1025.94 1025.98 1025.94 1025.98 1025.98 1026.06 1026.06 1026.18 1026.14 1026.06 1026.06 1025.98 1025.98 1025.98 1025.82 1025.50 1025.30 1025.26 1025.18 1024.98 1024.86 1024.78 1024.66 1024.62 1024.58 1024.54 1024.26 1023.94 1023.70 1023.58 1023.38 1023.22 1023.18 1023.06 1022.98 1022.94 1022.86 1022.78 1022.66 1022.50 1022.38 1022.46 1022.46 1022.38 1022.30 1022.22 1022.22 1022.26 1022.14 1021.90 1021.66
1025.62 1025.62 1025.62 1025.66 1025.74 1025.78 1025.82 1025.78 1025.86 1025.86 1025.86 1025.86 1025.90 1025.94 1025.98 1025.74 1025.46 1025.50 1025.38 1025.18 1025.10 1024.98 1024.78 1024.50 1024.30 1024.26 1024.18 1024.02 1023.82 1023.66 1023.50 1023.26 1023.06 1023.10 1023.02 1022.94 1022.86 1022.74 1022.74 1022.54 1022.50 1022.38 1022.42 1022.38 1022.30 1022.22 1022.18 1022.18 1022.10 1022.10 1022.02 1021.90
1025.26 1025.30 1025.38 1025.46 1025.50 1025.54 1025.54 1025.50 1025.58 1025.62 1025.70 1025.74 1025.78 1025.82 1025.82 1025.66 1025.62 1025.54 1025.30 1025.10 1024.94 1024.78 1024.50 1024.22 1024.10 1023.98 1023.90 1023.74 1023.50 1023.42 1023.30 1023.06 1022.82 1022.82 1022.70 1022.70 1022.74 1022.54 1022.42 1022.50 1022.50 1022.42 1022.30 1022.26 1022.30 1022.22 1022.14 1022.14 1022.10 1021.98 1021.94 1021.82
1025.06 1025.06 1025.26 1025.22 1025.30 1025.34 1025.38 1025.38 1025.34 1025.42 1025.46 1025.54 1025.62 1025.70 1025.70 1025.70 1025.58 1025.42 1025.18 1025.02 1024.90 1024.74 1024.54 1024.30 1024.02 1023.74 1023.58 1023.42 1023.38 1023.30 1023.14 1022.86 1022.74 1022.74 1022.66 1022.54 1022.50 1022.50 1022.42 1022.46 1022.50 1022.54 1022.38 1022.26 1022.26 1022.22 1022.14 1022.10 1022.06 1021.94 1021.82 1021.78
1024.78 1025.14 1025.10 1025.02 1025.06 1025.14 1025.18 1025.22 1025.22 1025.26 1025.26 1025.30 1025.42 1025.54 1025.62 1025.54 1025.42 1025.26 1025.10 1024.94 1024.86 1024.78 1024.54 1024.26 1023.94 1023.74 1023.54 1023.42 1023.38 1023.22 1023.02 1022.86 1022.78 1022.78 1022.62 1022.50 1022.42 1022.42 1022.46 1022.46 1022.46 1022.50 1022.46 1022.34 1022.26 1022.14 1022.10 1022.06 1021.94 1021.82 1021.70 1021.62
1024.66 1024.74 1024.74 1024.78 1024.90 1025.10 1025.14 1025.06 1025.14 1025.14 1025.18 1025.18 1025.34 1025.46 1025.38 1025.34 1025.34 1025.30 1025.10 1024.90 1024.78 1024.70 1024.50 1024.22 1024.02 1023.74 1023.58 1023.54 1023.42 1023.22 1023.10 1022.98 1022.90 1022.74 1022.66 1022.50 1022.46 1022.42 1022.38 1022.34 1022.34 1022.30 1022.26 1022.26 1022.22 1022.06 1022.02 1021.94 1021.90 1021.74 1021.58 1021.46
1024.42 1024.42 1024.50 1024.62 1024.82 1024.98 1024.90 1025.06 1025.02 1024.98 1025.02 1025.22 1025.22 1025.18 1025.22 1025.34 1025.34 1025.30 1025.14 1024.94 1024.70 1024.58 1024.46 1024.26 1024.10 1023.90 1023.70 1023.54 1023.34 1023.22 1023.18 1023.06 1022.94 1022.78 1022.66 1022.58 1022.46 1022.38 1022.26 1022.26 1022.22 1022.14 1022.06 1022.02 1021.94 1021.86 1021.86 1021.82 1021.74 1021.58 1021.50 1021.42
1024.18 1024.14 1024.22 1024.38 1024.54 1024.58 1024.66 1024.82 1024.78 1024.78 1024.98 1025.06 1024.94 1024.94 1025.10 1025.18 1025.26 1025.22 1025.14 1024.94 1024.70 1024.50 1024.42 1024.30 1024.14 1023.94 1023.70 1023.58 1023.42 1023.26 1023.22 1023.10 1022.98 1022.82 1022.74 1022.62 1022.50 1022.38 1022.26 1022.14 1022.06 1021.98 1021.94 1021.90 1021.78 1021.74 1021.70 1021.66 1021.54 1021.38 1021.30 1021.18
1023.82 1023.86 1023.98 1024.14 1024.22 1024.30 1024.42 1024.46 1024.50 1024.66 1024.78 1024.74 1024.74 1024.74 1024.74 1024.98 1025.14 1025.18 1025.02 1024.86 1024.66 1024.50 1024.42 1024.30 1024.06 1023.90 1023.62 1023.46 1023.30 1023.26 1023.26 1023.14 1023.06 1022.94 1022.86 1022.70 1022.54 1022.38 1022.30 1022.18 1022.02 1021.94 1021.82 1021.74 1021.62 1021.54 1021.50 1021.50 1021.34 1021.10 1020.94 1020.86
1023.46 1023.50 1023.62 1023.74 1023.86 1023.98 1024.10 1024.18 1024.34 1024.42 1024.42 1024.46 1024.50 1024.54 1024.62 1024.82 1024.98 1024.98 1024.90 1024.78 1024.70 1024.54 1024.38 1024.22 1023.98 1023.78 1023.54 1023.46 1023.34 1023.18 1023.22 1023.18 1023.14 1023.06 1022.94 1022.82 1022.66 1022.50 1022.38 1022.26 1022.02 1021.86 1021.70 1021.58 1021.46 1021.34 1021.26 1021.26 1021.14 1020.94 1020.74 1020.58
1023.10 1023.14 1023.22 1023.38 1023.54 1023.66 1023.78 1023.94 1024.06 1024.14 1024.22 1024.26 1024.26 1024.30 1024.46 1024.62 1024.74 1024.78 1024.74 1024.70 1024.58 1024.46 1024.34 1024.14 1023.94 1023.78 1023.66 1023.50 1023.34 1023.26 1023.18 1023.18 1023.26 1023.30 1023.18 1022.90 1022.66 1022.46 1022.34 1022.10 1021.90 1021.78 1021.66 1021.46 1021.38 1021.22 1021.14 1020.98 1020.90 1020.78 1020.58 1020.42
1022.66 1022.78 1022.90 1023.02 1023.18 1023.26 1023.42 1023.66 1023.78 1023.82 1023.86 1023.94 1023.98 1024.06 1024.22 1024.34 1024.46 1024.58 1024.54 1024.46 1024.38 1024.34 1024.22 1024.06 1023.90 1023.70 1023.58 1023.46 1023.30 1023.26 1023.26 1023.34 1023.34 1023.22 1022.98 1022.66 1022.50 1022.34 1022.18 1021.98 1021.82 1021.66 1021.50 1021.34 1021.22 1021.14 1021.02 1020.86 1020.70 1020.58 1020.42 1020.26
1022.14 1022.30 1022.50 1022.62 1022.78 1022.90 1023.10 1023.26 1023.38 1023.42 1023.54 1023.58 1023.66 1023.74 1023.90 1024.10 1024.22 1024.30 1024.30 1024.30 1024.22 1024.14 1024.02 1023.90 1023.74 1023.58 1023.46 1023.34 1023.30 1023.30 1023.30 1023.26 1023.10 1022.94 1022.82 1022.66 1022.50 1022.26 1022.06 1021.86 1021.70 1021.58 1021.42 1021.26 1021.14 1021.02 1020.94 1020.74 1020.54 1020.34 1020.18 1020.02
1021.66 1021.82 1022.02 1022.22 1022.34 1022.46 1022.66 1022.82 1022.94 1022.98 1023.10 1023.26 1023.34 1023.42 1023.54 1023.70 1023.90 1024.02 1024.14 1024.18 1024.18 1024.02 1023.90 1023.78 1023.66 1023.46 1023.34 1023.26 1023.26 1023.26 1023.26 1023.22 1023.06 1022.90 1022.82 1022.62 1022.38 1022.18 1022.10 1021.90 1021.66 1021.54 1021.42 1021.22 1021.06 1020.90 1020.78 1020.66 1020.46 1020.18 1019.90 1019.74
1021.30 1021.42 1021.54 1021.74 1021.94 1022.06 1022.30 1022.46 1022.58 1022.66 1022.78 1022.86 1023.02 1023.14 1023.26 1023.38 1023.58 1023.78 1023.90 1023.98 1023.94 1023.86 1023.74 1023.62 1023.50 1023.30 1023.18 1023.22 1023.22 1023.22 1023.22 1023.14 1023.02 1022.86 1022.70 1022.50 1022.38 1022.26 1022.14 1021.94 1021.70 1021.54 1021.42 1021.22 1020.94 1020.74 1020.62 1020.66 1020.46 1019.98 1019.62 1019.46
1020.94 1021.02 1021.14 1021.26 1021.50 1021.74 1021.90 1022.10 1022.18 1022.30 1022.42 1022.54 1022.70 1022.82 1022.94 1023.06 1023.22 1023.42 1023.62 1023.70 1023.74 1023.70 1023.62 1023.50 1023.38 1023.26 1023.18 1023.18 1023.18 1023.22 1023.18 1023.10 1022.94 1022.78 1022.66 1022.46 1022.30 1022.26 1022.14 1021.94 1021.74 1021.54 1021.34 1021.10 1020.86 1020.70 1020.62 1020.58 1020.26 1019.78 1019.42 1019.22
1020.62 1020.78 1020.86 1020.98 1021.14 1021.38 1021.54 1021.66 1021.82 1021.94 1022.06 1022.18 1022.30 1022.42 1022.54 1022.70 1022.94 1023.14 1023.30 1023.38 1023.46 1023.46 1023.38 1023.30 1023.26 1023.22 1023.18 1023.10 1023.10 1023.10 1023.10 1022.98 1022.82 1022.70 1022.62 1022.46 1022.30 1022.22 1022.10 1021.94 1021.78 1021.58 1021.34 1021.10 1020.90 1020.74 1020.62 1020.42 1020.02 1019.50 1019.18 1018.98
1020.66 1020.74 1020.78 1020.78 1020.90 1021.02 1021.22 1021.34 1021.46 1021.58 1021.66 1021.78 1021.86 1021.98 1022.10 1022.38 1022.58 1022.78 1022.98 1023.10 1023.18 1023.22 1023.14 1023.06 1023.06 1023.06 1022.98 1022.98 1022.98 1022.94 1022.94 1022.86 1022.74 1022.62 1022.46 1022.34 1022.22 1022.14 1022.10 1021.98 1021.78 1021.58 1021.34 1021.02 1020.82 1020.66 1020.38 1020.10 1019.62 1019.18 1018.82 1018.70
1020.62 1020.78 1020.86 1020.90 1020.82 1020.86 1020.82 1020.94 1021.06 1021.18 1021.26 1021.30 1021.42 1021.54 1021.74 1021.98 1022.22 1022.38 1022.54 1022.70 1022.82 1022.94 1022.90 1022.86 1022.82 1022.86 1022.82 1022.82 1022.82 1022.82 1022.82 1022.74 1022.54 1022.42 1022.26 1022.14 1022.06 1022.10 1021.98 1021.78 1021.58 1021.34 1021.10 1020.86 1020.74 1020.46 1020.02 1019.58 1019.14 1018.70 1018.38 1018.30
1020.34 1020.54 1020.62 1020.70 1020.66 1020.50 1020.50 1020.58 1020.62 1020.66 1020.74 1020.86 1020.90 1021.06 1021.30 1021.54 1021.78 1022.02 1022.22 1022.30 1022.46 1022.54 1022.62 1022.66 1022.66 1022.70 1022.66 1022.62 1022.62 1022.62 1022.58 1022.50 1022.46 1022.34 1022.22 1022.10 1022.02 1021.94 1021.90 1021.66 1021.34 1021.06 1020.94 1021.02 1020.62 1019.78 1019.34 1019.06 1018.58 1018.06 1017.86 1017.86
1019.94 1019.98 1020.02 1020.06 1020.02 1020.06 1019.98 1020.06 1020.18 1020.18 1020.18 1020.34 1020.54 1020.70 1020.86 1021.10 1021.34 1021.58 1021.78 1021.90 1022.02 1022.14 1022.30 1022.42 1022.46 1022.46 1022.46 1022.42 1022.38 1022.34 1022.30 1022.26 1022.22 1022.18 1022.18 1022.14 1021.98 1021.70 1021.58 1021.34 1021.02 1020.94 1021.14 1021.02 1020.50 1020.18 1019.66 1019.10 1017.82 1017.10 1017.22 1017.46
1019.58 1019.54 1019.62 1019.66 1019.46 1019.54 1019.54 1019.42 1019.42 1019.62 1019.78 1019.98 1020.18 1020.34 1020.50 1020.74 1020.90 1021.18 1021.38 1021.50 1021.66 1021.82 1021.94 1022.06 1022.18 1022.18 1022.14 1022.14 1022.14 1022.14 1022.14 1022.06 1022.06 1021.98 1021.98 1021.94 1021.74 1021.50 1021.18 1020.98 1020.74 1020.82 1020.98 1021.10 1020.74 1020.50 1019.98 1018.66 1018.30 1017.06 1017.30 1017.30
1019.34 1019.34 1019.34 1019.46 1019.46 1019.42 1019.34 1019.30 1019.34 1019.46 1019.62 1019.82 1020.02 1020.22 1020.34 1020.42 1020.58 1020.74 1020.90 1021.06 1021.22 1021.42 1021.58 1021.74 1021.82 1021.90 1021.90 1021.86 1021.82 1021.94 1021.90 1021.74 1021.58 1021.58 1021.58 1021.50 1021.42 1021.38 1021.38 1020.78 1020.46 1020.26 1020.66 1020.98 1020.98 1020.58 1019.54 1019.46 1018.86 1018.38 1016.58 1017.86
1019.30 1019.46 1019.50 1019.50 1019.66 1019.74 1019.74 1019.66 1019.66 1019.62 1019.54 1019.66 1019.74 1019.90 1019.98 1020.06 1020.22 1020.38 1020.54 1020.62 1020.74 1020.90 1021.14 1021.38 1021.50 1021.58 1021.54 1021.58 1021.54 1021.58 1021.58 1021.46 1021.22 1021.14 1021.14 1021.14 1021.10 1021.02 1020.90 1020.74 1020.34 1020.26 1020.34 1020.66 1020.82 1020.86 1020.54 1019.54 1018.70 1018.02 1018.26 1018.74
1019.26 1019.46 1019.54 1019.54 1019.58 1019.70 1019.58 1019.46 1019.34 1019.22 1019.02 1019.10 1019.18 1019.26 1019.30 1019.54 1019.70 1019.98 1020.14 1020.22 1020.30 1020.42 1020.62 1020.86 1021.06 1021.18 1021.26 1021.30 1021.30 1021.26 1021.22 1021.10 1020.94 1020.86 1020.86 1020.82 1020.82 1020.82 1020.78 1020.70 1020.62 1020.46 1020.10 1020.18 1020.42 1020.58 1020.58 1020.42 1020.26 1019.94 1019.54 1019.66
1019.18 1019.34 1019.30 1019.22 1019.14 1019.02 1018.90 1018.70 1018.22 1018.22 1018.22 1018.26 1018.22 1018.42 1018.66 1018.78 1019.10 1019.38 1019.66 1019.78 1019.90 1019.98 1020.10 1020.30 1020.54 1020.74 1020.90 1020.98 1020.98 1020.94 1020.94 1020.82 1020.66 1020.54 1020.54 1020.58 1020.58 1020.50 1020.46 1020.54 1020.62 1020.42 1020.14 1019.90 1019.82 1020.06 1020.30 1020.38 1020.30 1020.18 1020.42 1020.06
Wind_Speed
3 6 9 10 10 11 11 11 11 12 12 13 14 14 15 16 16 17 17 15 13 15 13 14 14 15 16 17 16 15 15 15 16 17 16 16 17 17 16 16 16 17 19 19 19 19 19 20 19 17 16 8
1 2 7 8 7 8 9 9 10 10 11 12 13 14 14 15 16 17 15 13 12 14 12 13 12 14 15 16 15 14 14 13 14 15 15 15 15 15 16 15 15 16 17 18 18 18 19 19 19 16 14 8
3 2 4 6 4 6 6 7 8 9 10 11 11 12 12 14 15 16 13 12 13 13 12 12 12 13 15 15 15 14 14 13 14 14 14 14 14 14 14 14 14 15 15 16 17 18 18 19 18 15 10 8
3 2 3 6 3 3 3 4 6 8 9 8 10 10 11 13 14 13 10 12 11 10 12 12 13 14 14 16 15 14 13 13 13 13 13 13 13 13 13 13 13 12 13 15 16 17 17 17 16 8 7 10
2 2 2 4 3 4 3 5 4 8 8 7 9 8 10 12 10 9 8 9 10 11 9 13 15 14 13 15 15 14 12 13 12 12 12 12 12 12 12 11 10 7 10 13 14 15 15 14 8 7 8 9
2 2 4 3 4 4 3 4 4 6 6 7 7 8 8 9 8 7 8 9 9 8 10 11 14 12 12 13 14 12 11 14 11 10 12 11 12 12 10 9 5 5 7 9 11 12 12 7 6 7 8 8
3 3 3 3 3 3 3 4 4 5 6 6 6 6 7 8 6 8 8 8 8 9 13 13 12 11 12 13 12 10 10 12 10 7 10 10 10 10 7 6 5 5 4 5 9 9 6 5 6 7 7 7
4 3 3 3 3 3 3 4 3 4 6 5 6 6 6 7 8 8 7 9 11 10 8 8 11 11 11 12 9 9 9 10 7 9 10 8 9 8 5 5 6 5 5 4 5 5 5 5 6 6 6 6
4 3 3 4 3 3 4 4 4 4 5 5 6 6 6 7 7 7 7 7 7 7 7 8 8 7 6 6 7 8 7 6 6 6 7 6 6 5 6 6 6 6 6 6 3 3 3 3 5 5 5 5
3 3 4 3 3 3 3 4 4 4 4 4 5 6 7 6 7 7 7 7 7 7 7 7 7 6 6 5 6 6 6 6 6 6 6 7 6 6 6 6 6 6 6 6 5 3 3 3 3 4 5 5
4 5 4 4 3 3 5 3 4 4 4 4 6 6 5 5 6 7 7 7 7 7 7 6 7 6 5 6 6 6 6 6 6 6 6 6 6 6 6 6 7 7 7 6 6 4 3 3 4 4 4 5
6 5 5 5 4 5 4 3 4 4 4 4 6 5 5 6 5 6 7 7 7 6 6 6 6 6 6 5 5 5 6 6 6 6 6 6 7 7 6 7 7 7 7 7 7 7 5 4 4 4 4 5
6 6 5 5 5 5 4 4 4 4 4 5 4 4 5 5 5 6 7 7 7 6 6 6 6 6 6 6 6 5 5 6 6 6 6 7 7 7 7 7 7 8 8 8 7 7 7 6 5 5 5 5
6 6 6 6 6 5 4 5 5 3 5 5 5 4 4 4 5 7 7 7 7 6 7 7 6 6 6 5 5 5 6 5 6 6 6 7 7 7 8 8 8 8 8 8 8 8 8 7 6 5 5 6
8 7 7 7 6 6 5 5 4 4 5 5 5 5 4 5 6 6 6 6 7 7 6 6 7 6 5 5 5 5 5 6 6 6 7 8 8 8 8 8 8 8 8 9 9 9 8 8 8 7 7 6
9 8 8 7 6 6 6 5 5 5 5 5 5 5 5 5 5 6 6 7 7 7 7 6 7 7 6 6 6 6 5 5 6 7 9 10 9 8 8 8 8 8 9 9 9 9 10 9 8 8 8 7
9 8 8 8 7 7 6 6 6 6 6 5 5 5 5 5 6 6 6 6 7 7 7 7 7 7 7 6 6 6 6 7 8 8 8 8 8 8 8 9 8 8 8 9 9 9 10 9 9 9 9 9
9 9 8 8 7 7 7 7 6 6 6 6 5 5 6 6 6 6 6 6 7 7 7 7 7 7 7 6 7 7 6 6 6 7 7 8 8 8 8 8 9 9 9 9 9 9 10 9 9 9 9 9
11 9 9 8 8 7 8 7 7 6 6 6 6 6 6 6 6 7 7 7 7 7 7 7 7 7 6 6 6 6 6 7 7 7 8 8 8 8 8 9 9 9 9 10 10 10 9 9 10 10 10 9
12 11 10 8 8 8 8 7 7 7 7 6 6 6 6 6 7 7 7 7 7 7 7 6 7 6 6 6 6 5 6 7 7 7 7 8 8 8 9 9 10 9 10 10 11 10 9 9 11 11 10 10
12 11 11 10 9 9 9 8 8 7 7 7 7 6 6 6 6 7 7 7 7 7 7 7 7 6 7 6 6 6 6 7 7 7 7 8 7 8 9 9 11 10 9 10 10 10 10 10 11 11 10 9
11 11 10 9 9 9 9 10 8 8 7 7 7 7 7 7 7 6 7 7 7 7 7 6 6 6 7 6 6 6 7 7 7 7 8 8 8 8 8 8 9 10 10 9 9 9 10 11 11 11 10 9
10 10 10 9 9 9 10 9 9 8 8 8 7 7 8 7 7 7 7 8 8 7 7 6 7 7 7 6 6 6 7 8 8 8 8 8 8 7 8 9 9 10 10 10 9 9 11 11 13 11 10 9
9 8 9 9 9 10 10 9 9 9 9 8 8 8 8 8 7 7 7 8 8 7 7 7 6 7 7 6 6 7 8 8 7 8 8 8 8 9 9 8 8 9 9 8 9 11 11 11 12 12 10 9
9 9 9 9 10 10 9 9 10 9 9 9 9 9 9 9 8 8 8 8 8 8 7 7 7 7 7 7 7 7 8 9 9 9 8 7 7 8 8 8 7 7 6 8 9 8 8 9 11 11 10 8
10 10 9 9 9 9 9 9 9 9 9 9 9 10 10 9 9 9 9 8 9 8 8 8 7 8 8 7 8 8 8 9 8 8 7 7 7 7 8 7 6 6 5 6 7 8 9 9 7 6 4 4
11 10 10 11 10 9 8 9 9 8 8 8 9 9 10 9 9 9 9 9 9 8 9 9 8 8 7 8 8 8 8 9 9 8 9 8 7 6 6 7 6 6 5 6 6 8 9 7 7 4 4 4
12 13 12 11 11 11 9 8 7 8 8 8 8 9 9 9 9 10 9 10 10 9 9 9 9 8 8 8 8 8 8 8 9 8 8 7 7 7 7 6 6 4 4 4 5 4 3 7 7 6 1 8
10 10 10 9 8 8 9 8 8 8 9 9 9 9 10 10 11 11 11 10 11 10 10 10 9 9 9 9 9 8 9 9 8 8 8 8 7 7 6 6 5 5 5 5 5 5 5 3 3 2 6 9
9 8 9 9 8 9 9 10 10 12 11 10 11 11 10 11 11 12 11 11 11 12 10 10 10 10 9 9 9 9 9 9 8 9 9 8 7 8 8 7 6 6 6 6 6 7 6 6 5 6 7 6
8 9 10 12 12 12 11 12 11 10 11 11 10 9 11 11 11 12 12 11 11 11 12 11 10 10 10 10 10 9 9 9 9 8 8 8 8 7 6 7 7 7 6 5 6 7 7 7 7 6 5 4
Wind_Direction
348 1 357 357 354 350 347 345 343 340 340 339 336 336 335 334 331 326 321 321 325 332 334 336 336 336 335 335 337 342 347 348 347 350 351 351 351 351 351 350 348 345 341 340 339 340 341 342 344 345 349 339
127 351 354 348 351 349 346 342 339 339 335 333 333 329 329 329 324 318 315 313 317 321 327 330 330 330 328 330 333 340 347 349 348 347 352 351 353 354 354 353 351 346 341 341 342 341 340 342 341 342 347 345
335 59 353 330 335 347 339 336 334 331 329 324 325 322 323 322 318 310 305 310 314 311 321 323 319 322 318 324 326 336 342 348 346 345 350 352 352 355 357 355 351 348 346 345 344 342 343 342 342 341 348 345
319 24 359 300 275 309 316 318 321 319 314 314 314 314 316 317 309 305 308 314 310 314 320 316 317 309 314 318 320 327 334 342 340 341 344 351 347 350 352 352 348 351 353 351 348 346 346 347 344 347 344 337
310 307 256 268 295 275 264 302 288 306 297 311 311 316 317 312 310 310 313 316 315 315 315 317 308 306 307 310 315 319 329 334 332 335 339 341 343 341 346 347 342 352 357 355 352 351 349 353 350 344 337 333
248 285 260 300 302 304 309 295 294 298 316 310 316 319 319 315 308 320 319 309 311 318 314 306 300 296 296 305 313 317 324 324 321 329 333 334 338 335 338 337 338 345 351 348 352 350 354 357 347 339 336 331
250 253 282 300 294 292 272 299 293 303 312 313 315 319 317 312 318 320 310 304 310 305 299 290 289 289 292 298 305 306 315 315 314 314 323 327 330 326 323 334 340 344 340 340 346 349 353 349 345 337 332 328
266 266 278 298 290 296 294 307 300 306 311 311 314 317 314 316 317 311 306 305 303 303 302 312 306 296 290 282 283 314 312 309 309 320 318 322 323 323 332 334 334 336 332 336 344 340 345 340 336 335 331 328
244 245 288 275 278 285 292 300 301 299 309 304 309 315 313 315 307 307 307 308 309 307 308 306 303 300 301 309 312 313 301 306 319 323 320 319 324 324 326 329 325 327 325 327 332 330 335 331 327 323 321 319
241 214 249 254 273 276 292 295 295 300 296 304 309 319 310 305 307 310 307 307 306 305 306 303 305 304 300 305 307 302 306 312 316 313 312 319 320 322 321 321 317 316 315 315 317 320 321 321 320 315 312 310
237 239 244 247 252 280 286 279 293 290 291 303 316 303 299 306 312 307 306 304 303 303 304 304 303 302 307 305 298 302 303 310 308 308 311 313 316 315 310 311 314 308 306 302 306 303 305 306 310 304 305 304
239 238 239 239 244 233 240 256 274 275 284 305 291 290 301 305 296 303 304 300 299 301 300 300 302 298 292 291 292 302 302 302 305 305 306 307 308 308 310 309 310 305 306 309 303 299 299 301 297 298 298 297
228 236 235 226 231 244 245 252 261 264 284 282 278 286 289 289 294 298 297 295 297 298 295 298 296 295 290 290 290 294 295 295 298 302 306 306 305 308 305 307 304 308 304 304 303 300 297 296 295 292 289 288
228 230 229 228 232 237 231 244 252 259 266 270 275 280 283 285 292 290 292 294 290 290 294 291 289 285 283 281 288 292 287 296 297 299 303 301 299 300 306 304 305 303 301 299 300 297 296 296 293 290 289 288
229 229 228 226 224 222 226 234 238 249 254 258 265 272 280 284 275 281 281 286 289 284 284 288 287 282 287 285 283 287 289 292 291 296 299 301 300 298 297 300 297 296 298 298 297 296 296 296 294 291 288 286
228 230 228 227 224 227 230 228 234 244 252 252 255 259 263 267 271 272 279 278 279 277 276 281 288 286 284 282 281 281 283 290 299 298 291 286 283 285 286 291 293 295 295 294 293 295 296 295 289 290 289 286
224 226 226 222 221 228 220 220 227 239 238 247 253 253 252 253 263 268 268 275 277 279 277 274 276 280 277 280 279 277 282 287 282 276 276 281 288 289 289 287 290 289 288 291 293 294 296 296 292 288 287 283
225 221 221 218 221 220 215 216 221 228 234 237 243 244 248 249 251 256 259 264 271 272 272 273 273 274 273 273 278 277 272 268 271 278 283 286 287 283 286 289 292 294 291 291 292 292 294 293 293 291 286 283
226 222 217 215 216 218 213 219 224 227 229 235 238 237 239 235 239 244 246 253 264 264 263 265 266 265 267 271 275 279 279 280 279 277 280 283 283 288 288 288 288 288 290 290 291 292 291 293 296 290 282 281
225 224 223 218 215 218 211 216 220 223 224 227 231 234 239 237 239 241 245 251 253 255 252 259 262 263 267 274 273 272 277 277 276 275 276 281 283 285 285 289 288 289 290 289 288 290 291 291 291 285 280 278
224 225 224 221 217 216 213 213 219 222 221 223 222 224 232 232 229 230 232 244 245 246 253 254 257 260 262 264 265 269 273 277 278 275 274 274 277 281 286 286 287 287 286 290 291 292 291 288 285 281 278 278
226 226 225 223 222 216 217 218 218 221 218 220 220 222 227 224 226 228 232 238 237 240 246 250 255 261 263 263 264 265 267 269 272 277 277 278 277 279 284 287 288 288 289 290 292 289 286 283 280 279 278 277
238 233 229 229 224 220 222 220 220 220 220 219 220 220 219 217 218 226 230 233 230 233 243 244 247 252 254 255 256 260 263 264 264 263 267 271 275 278 279 282 284 286 287 285 286 286 283 281 278 276 277 276
237 232 231 232 226 228 224 222 217 215 219 220 219 217 213 211 215 223 228 227 225 231 238 245 245 250 251 250 251 254 257 260 259 261 266 267 273 279 278 276 278 281 284 288 289 286 279 273 272 273 272 273
229 228 231 232 231 234 229 225 222 221 216 217 218 213 209 208 211 215 223 225 220 225 232 240 246 247 248 246 246 249 253 255 260 264 265 272 275 275 279 277 272 276 290 296 289 278 287 291 281 268 263 265
236 229 228 231 234 233 234 228 221 222 218 215 213 209 208 207 210 214 219 221 220 222 226 233 236 238 242 240 243 245 249 253 255 258 257 262 268 263 263 270 272 281 296 281 294 314 307 294 275 268 240 241
244 243 239 238 244 241 243 240 234 227 223 218 212 210 206 207 210 212 216 216 217 218 223 225 228 234 236 237 238 241 243 244 245 243 247 247 253 271 270 271 270 259 250 281 301 292 283 294 327 308 195 203
249 253 256 252 251 253 253 254 248 240 233 225 216 214 209 211 210 212 215 213 213 215 216 221 225 229 233 235 232 234 239 240 237 234 236 237 240 247 267 264 265 241 224 251 299 304 317 309 297 305 235 360
256 258 256 253 251 251 258 258 251 246 235 226 226 224 218 216 210 211 214 213 212 212 214 216 219 223 229 232 230 230 234 237 236 234 234 237 240 238 248 267 272 276 257 243 238 272 298 294 264 289 341 342
260 251 251 251 243 240 236 243 234 232 232 223 219 218 219 218 211 209 211 213 211 211 212 213 216 220 223 228 232 228 232 234 236 231 230 231 232 238 242 253 272 272 265 244 234 235 253 276 290 309 314 323
257 250 251 251 250 250 251 254 251 242 237 230 227 216 213 211 208 205 208 212 210 212 211 212 214 217 220 225 228 229 229 231 231 231 227 227 229 232 232 232 246 254 266 268 243 227 232 248 262 272 291 286